Search the data

BODC Cruise Metadata Report for FRV Scotia (748S) cruise 1005S

Introduction

This report collates information from the BODC cruise inventory and oceanographic databases. It presents

Cruise Inventory Information

Long name FRV Scotia (748S) cruise 1005S
Short name 1005S
Objectives and Narrative 1. To undertake an internationally co-ordinated demersal trawling survey of the North Sea.
2. Obtain temperature and salinity profiles at each trawling station.
3. Obtain low nutrient water seawater samples from statistical rectangle 45F1 (or an adjacent rectangle).
Ship FRV Scotia
Departure Port Aberdeen, United Kingdom
Departure Date 2005-07-21
Arrival Port Aberdeen, United Kingdom
Arrival Date 2005-08-11
Principal Scientist(s) Kenneth A Coull (Fisheries Research Services Aberdeen Marine Laboratory)
Responsible Organisation Fisheries Research Services Aberdeen Marine Laboratory
Associated Project(s) RV0507
IHB Sea Areas Visited North Sea, North East Atlantic Ocean (limit 40W)
Marsden Squares Visited 181;1/181;3/216;1/216;2/216;3/216;4/217;1/252;1
Work Area Description North Sea; Shetland area
Work Area Bounding Polygon 50N,5W; 65N,5W; 65N,10E; 50N,10E; 50N,5W
Southern Limit 50N
Northern Limit 65N
Western Limit 5W
Eastern Limit 10E

Cruise Inventory Datasets

Physical oceanography  
CTD stations Quantity: number of stations = 87
Description: CTD deployed at each trawl station  
Subsurface temperature and salinity measurements Quantity: activity duration in days = 22
Description: The ship's thermosalinograph was run continuously throughout the cruise.  
Biology and fisheries  
Demersal fish Quantity: number of hauls = 87
Description: Fish length, weight, sex and maturity data were collected.  

Cruise Inventory Mooring/Buoy Operations

No information on datasets is currently available

Summary of BODC Data Holdings for the Cruise

National Oceanographic Database

Summary

# Series Instrument Description Parameters
87 CTD/STD cast Chlorophyll pigment concentrations in water bodies
Electrical conductivity of the water column
Salinity of the water column
Temperature of the water column
Transmittance and attenuance of the water column
Vertical spatial coordinates

Note: Parameter terms are taken from the BODC Parameter Discovery Vocabulary XML (SKOS)

Full List

BODC Reference Instrument Description Date/Time Location  
711380 CTD/STD cast 2005-07-21 10:50Z 57° 4' N, 1° 51' W Click for more
711392 CTD/STD cast 2005-07-21 13:59Z 56° 45' N, 2° 13' W Click for more
711411 CTD/STD cast 2005-07-21 16:34Z 56° 13' N, 2° 4' W Click for more
711423 CTD/STD cast 2005-07-22 05:37Z 56° 25' N, 1° 52' W Click for more
711435 CTD/STD cast 2005-07-22 08:59Z 56° 36' N, 1° 18' W Click for more
711447 CTD/STD cast 2005-07-22 12:14Z 56° 16' N, 1° 0' W Click for more
711459 CTD/STD cast 2005-07-22 15:02Z 55° 58' N, 1° 7' W Click for more
711460 CTD/STD cast 2005-07-22 18:37Z 55° 53' N, 0° 24' W Click for more
711472 CTD/STD cast 2005-07-23 05:07Z 56° 15' N, 1° 24' E Click for more
711484 CTD/STD cast 2005-07-23 07:56Z 56° 34' N, 1° 17' E Click for more
711496 CTD/STD cast 2005-07-23 11:44Z 56° 46' N, 0° 29' E Click for more
711503 CTD/STD cast 2005-07-23 14:54Z 56° 25' N, 0° 11' E Click for more
711515 CTD/STD cast 2005-07-23 18:20Z 56° 46' N, 0° 19' W Click for more
711527 CTD/STD cast 2005-07-24 04:50Z 57° 36' N, 2° 12' E Click for more
711539 CTD/STD cast 2005-07-24 08:14Z 57° 40' N, 1° 21' E Click for more
711540 CTD/STD cast 2005-07-24 10:54Z 57° 35' N, 0° 49' E Click for more
711552 CTD/STD cast 2005-07-24 15:00Z 57° 10' N, 0° 12' E Click for more
711564 CTD/STD cast 2005-07-24 18:39Z 57° 16' N, 0° 46' W Click for more
711576 CTD/STD cast 2005-07-25 05:07Z 57° 30' N, 1° 22' W Click for more
711588 CTD/STD cast 2005-07-25 08:13Z 57° 46' N, 0° 54' W Click for more
711607 CTD/STD cast 2005-07-25 11:01Z 58° 3' N, 1° 7' W Click for more
711619 CTD/STD cast 2005-07-25 15:15Z 58° 6' N, 0° 4' W Click for more
711620 CTD/STD cast 2005-07-25 18:35Z 58° 18' N, 0° 31' E Click for more
711632 CTD/STD cast 2005-07-26 05:04Z 58° 45' N, 1° 9' E Click for more
711644 CTD/STD cast 2005-07-26 08:33Z 58° 48' N, 0° 20' E Click for more
711656 CTD/STD cast 2005-07-26 12:25Z 58° 51' N, 0° 36' W Click for more
711668 CTD/STD cast 2005-07-26 14:40Z 59° 2' N, 0° 48' W Click for more
711681 CTD/STD cast 2005-07-26 18:17Z 58° 45' N, 1° 28' W Click for more
711693 CTD/STD cast 2005-07-27 05:08Z 57° 50' N, 2° 34' W Click for more
711700 CTD/STD cast 2005-07-27 08:34Z 57° 49' N, 3° 22' W Click for more
711712 CTD/STD cast 2005-07-27 11:16Z 58° 9' N, 3° 6' W Click for more
711724 CTD/STD cast 2005-07-27 13:28Z 58° 19' N, 2° 45' W Click for more
711736 CTD/STD cast 2005-07-27 17:14Z 58° 49' N, 2° 24' W Click for more
711748 CTD/STD cast 2005-07-28 05:05Z 59° 13' N, 1° 30' W Click for more
711761 CTD/STD cast 2005-07-28 08:52Z 59° 12' N, 2° 15' W Click for more
711773 CTD/STD cast 2005-07-28 12:33Z 59° 47' N, 2° 33' W Click for more
711785 CTD/STD cast 2005-07-28 16:07Z 59° 57' N, 1° 37' W Click for more
711797 CTD/STD cast 2005-07-28 17:50Z 60° 1' N, 1° 28' W Click for more
711804 CTD/STD cast 2005-07-29 05:08Z 60° 19' N, 2° 43' W Click for more
711816 CTD/STD cast 2005-07-29 10:05Z 60° 54' N, 1° 54' W Click for more
711828 CTD/STD cast 2005-07-29 14:36Z 60° 48' N, 0° 36' W Click for more
711841 CTD/STD cast 2005-07-29 19:00Z 60° 4' N, 0° 38' W Click for more
711853 CTD/STD cast 2005-07-30 05:03Z 59° 42' N, 0° 18' W Click for more
711865 CTD/STD cast 2005-07-30 07:58Z 59° 41' N, 0° 19' E Click for more
711877 CTD/STD cast 2005-07-30 15:39Z 60° 41' N, 1° 16' E Click for more
711889 CTD/STD cast 2005-07-30 19:03Z 60° 54' N, 0° 34' E Click for more
711890 CTD/STD cast 2005-07-31 05:07Z 60° 33' N, 2° 3' E Click for more
711908 CTD/STD cast 2005-07-31 10:41Z 59° 41' N, 1° 25' E Click for more
711921 CTD/STD cast 2005-07-31 14:29Z 59° 41' N, 2° 22' E Click for more
711933 CTD/STD cast 2005-07-31 17:45Z 59° 39' N, 3° 12' E Click for more
711945 CTD/STD cast 2005-08-01 14:51Z 58° 54' N, 3° 24' E Click for more
711957 CTD/STD cast 2005-08-02 18:21Z 58° 47' N, 2° 37' E Click for more
711969 CTD/STD cast 2005-08-03 05:28Z 57° 18' N, 5° 7' E Click for more
711970 CTD/STD cast 2005-08-03 08:52Z 57° 9' N, 4° 28' E Click for more
711982 CTD/STD cast 2005-08-03 12:58Z 56° 43' N, 3° 36' E Click for more
711994 CTD/STD cast 2005-08-03 16:54Z 56° 46' N, 2° 32' E Click for more
712008 CTD/STD cast 2005-08-04 05:31Z 56° 9' N, 2° 18' E Click for more
712021 CTD/STD cast 2005-08-04 10:24Z 56° 16' N, 3° 39' E Click for more
712033 CTD/STD cast 2005-08-04 13:53Z 56° 42' N, 4° 4' E Click for more
712045 CTD/STD cast 2005-08-04 17:46Z 56° 14' N, 4° 32' E Click for more
712057 CTD/STD cast 2005-08-05 05:30Z 56° 6' N, 5° 46' E Click for more
712069 CTD/STD cast 2005-08-05 08:22Z 56° 10' N, 6° 28' E Click for more
712070 CTD/STD cast 2005-08-05 11:55Z 56° 9' N, 7° 23' E Click for more
712082 CTD/STD cast 2005-08-05 17:01Z 55° 20' N, 7° 9' E Click for more
712094 CTD/STD cast 2005-08-06 05:30Z 55° 16' N, 6° 38' E Click for more
712101 CTD/STD cast 2005-08-06 10:52Z 54° 22' N, 7° 11' E Click for more
712113 CTD/STD cast 2005-08-06 13:44Z 54° 18' N, 6° 36' E Click for more
712125 CTD/STD cast 2005-08-06 17:15Z 54° 18' N, 5° 43' E Click for more
712137 CTD/STD cast 2005-08-07 05:33Z 55° 4' N, 5° 12' E Click for more
712149 CTD/STD cast 2005-08-07 09:28Z 55° 12' N, 4° 19' E Click for more
712150 CTD/STD cast 2005-08-07 13:02Z 55° 13' N, 3° 32' E Click for more
712162 CTD/STD cast 2005-08-07 17:02Z 55° 12' N, 2° 37' E Click for more
712174 CTD/STD cast 2005-08-08 05:30Z 54° 14' N, 4° 28' E Click for more
712186 CTD/STD cast 2005-08-08 09:25Z 54° 21' N, 3° 37' E Click for more
712198 CTD/STD cast 2005-08-08 13:20Z 54° 17' N, 2° 48' E Click for more
712205 CTD/STD cast 2005-08-08 17:30Z 54° 46' N, 2° 35' E Click for more
712217 CTD/STD cast 2005-08-09 05:02Z 55° 41' N, 2° 15' E Click for more
712229 CTD/STD cast 2005-08-09 07:47Z 55° 35' N, 1° 43' E Click for more
712230 CTD/STD cast 2005-08-09 11:21Z 55° 16' N, 1° 38' E Click for more
712242 CTD/STD cast 2005-08-09 14:11Z 54° 49' N, 1° 15' E Click for more
712254 CTD/STD cast 2005-08-09 17:23Z 54° 24' N, 1° 11' E Click for more
712266 CTD/STD cast 2005-08-10 05:04Z 54° 21' N, 0° 41' E Click for more
712278 CTD/STD cast 2005-08-10 08:46Z 54° 48' N, 0° 24' E Click for more
712291 CTD/STD cast 2005-08-10 11:34Z 54° 49' N, 0° 11' W Click for more
712309 CTD/STD cast 2005-08-10 13:55Z 55° 3' N, 0° 11' W Click for more
712310 CTD/STD cast 2005-08-10 17:44Z 55° 20' N, 0° 34' E Click for more
712322 CTD/STD cast 2005-08-11 06:29Z 55° 43' N, 0° 10' E Click for more

Project Database

No data currently held for this cruise in the BODC Project Database

References

Track Charts

Track Chart

Reports

Cruise Report